Regional Weather Roundup
Issued by NWS

Home | Current Version | Previous Version | Graphics & Text | Print | Product List | Glossary On
Versions: 1 2 3 4 5 6 7 8 9 10 11 12 13 14 15 16 17 18 19 20 21 22 23 24 25 26 27 28 29 30 31 32 33 34 35 36 37 38 39 40 41 42 43 44 45 46 47 48 49 50
000
ASUS43 KFSD 280602
RWRSD

WEATHER ROUNDUP FOR SOUTH DAKOTA
NATIONAL WEATHER SERVICE SIOUX FALLS SD
100 AM CDT TUE APR 28 2015

NOTE: "FAIR" INDICATES FEW OR NO CLOUDS BELOW 12,000 FEET WITH NO
SIGNIFICANT WEATHER AND/OR OBSTRUCTIONS TO VISIBILITY.


SDZ001>005-009-010-012>017-280700-
NORTHWEST AND NORTH CENTRAL SOUTH DAKOTA

CITY           SKY/WX    TMP DP  RH WIND       PRES   REMARKS
BUFFALO          N/A     43  36  76 W3        30.27S
FAITH            N/A     43  38  82 W5        30.32S
MOBRIDGE       MOCLDY    40  38  93 N6        30.28R FOG
$$

SDZ012>016-024>037-041>051-057-063-072>074-280700-
SOUTHWEST AND SOUTH CENTRAL SOUTH DAKOTA

CITY           SKY/WX    TMP DP  RH WIND       PRES   REMARKS
RAPID CTY ARPT CLOUDY    42  38  85 N3        30.35S
PIERRE         CLOUDY    47  43  86 NW6       30.31S
CUSTER         CLOUDY    39  37  92 SW6       30.33S
ELLSWORTH AFB  CLOUDY    43  37  78 N5        30.34S
PHILIP         CLOUDY    46  42  86 W3        30.34S
PINE RIDGE     MOCLDY    44  39  82 CALM      30.35S
WINNER         FAIR      43  38  82 NW8       30.32S
$$

SDZ004>011-016>023-039-040-280700-
NORTHEAST SOUTH DAKOTA

CITY           SKY/WX    TMP DP  RH WIND       PRES   REMARKS
ABERDEEN       CLOUDY    49  43  80 N13       30.27F
WATERTOWN      CLEAR     45  37  73 N9        30.22R
BROOKINGS      CLEAR     43  30  61 CALM      30.21R
SISSETON         N/A     51  43  74 N14       30.22S
$$

SDZ017-020-022-023-036>040-048>070-280700-
SOUTHEAST SOUTH DAKOTA

CITY           SKY/WX    TMP DP  RH WIND       PRES   REMARKS
SIOUX FALLS    FAIR      45  31  58 CALM      30.20R
HURON          PTCLDY    49  41  74 NW13      30.25R
MITCHELL       CLEAR     50  43  77 NW13      30.24R
YANKTON        PTCLDY    45  28  53 NW9       30.21R
$$

ABBREVIATIONS USED IN REMARKS
   TC - TEMPERATURE IN CELSIUS
  WCI - WIND CHILL INDEX
   HX - HEAT INDEX
  VSB - VISIBILITY



USA.gov is the U.S. government's official web portal to all federal, state and local government web resources and services.